Starlink 3626

operational
NORAD ID: 51792 Int'l Des: 2022-017 Owner: SPXS Country: US Constellation: starlink
LEOCIRCULAR

About Starlink 3626

Description loading...

Live Position

Loading 3D Globe...

Upcoming Passes

Altitude History

Altitude vs Time

uPlot chart will show altitude changes over time

Two-Line Element Set

1 51792U 22017AA 25305.99003163 .00001084 00000-0 86177-4 0 9998
2 51792 53.2161 202.3861 0001424 82.7034 277.4120 15.08842782204690
Epoch: Nov 1, 2025 • Age: 20 hours

Current Status

Altitude 541.5 km
Velocity 7.60 km/s
Sub-Earth Point 33.74°N, 15.03°E
Launch Date Feb 25, 2022
Age 3.6 years
Type internet

Technical Details

Classification Payload
Mass 297.00 kg
Dry Mass 275.00 kg
Total Mass 297.00 kg
Length 0.20 m
Diameter 2.80 m
Span 9.00 m
Shape Box + pan
Manufacturer SPXS
Bus Type Starlink
Phase Status In Orbit
Owner/State SPXS/US

Large Constellations

Loading constellations...